Location: Long Island Community Building
(39.9491°N, 99.5338°W)
Time: 02:59:43
(UTC+00:00)

Cosmos 1461 - Pass Details

Date: 06 December 2019
Orbit: 518 x 649 km, 65.0° (Epoch: 28 January)

Event Time Altitude Azimuth Distance (km) Brightness Sun altitude
Exits shadow 12:47:09 - 327° (NNW) 1,926 5.1 -10.9°
Reaches altitude 10° 12:47:15 10° 327° (NNW) 1,885 5.1 -10.9°
Maximum altitude 12:51:31 85° 241° (WSW) 599 2.9 -10.2°
Drops below altitude 10° 12:55:56 10° 152° (SSE) 1,956 6.4 -9.4°
Sets 12:58:14 0° 151° (SSE) 2,877 7.4 -9.0°
